{"data":{"norad_id":48137,"intl_designator":"2021-027AX","name":"STARLINK-2480","alt_names":[],"object_type":"PAYLOAD","status":"ACTIVE","operator":null,"country":"US","launch_date":"2021-04-07","launch_site_code":"AFETR","launch_vehicle":null,"mission":null,"orbit_class":"UNKNOWN","rcs_meters":null,"size_class":null,"mass_kg":null,"dimensions":null,"purposes":["comms"],"wikipedia_slug":null,"has_3d_model":false,"image_url":null,"decayed_at":null,"tle_current":{"epoch":"2026-05-25T01:00:54.999072Z","epoch_age_seconds":65269,"freshness":"FRESH","line1":"1 48137U 21027AX  26145.04230323  .00001209  00000+0  50706-4 0  9993","line2":"2 48137  53.1607 160.2235 0000949  80.1975 279.9133 15.31702000284331","mean_motion":15.31702,"eccentricity":9.49e-5,"inclination_deg":53.1607,"raan_deg":160.2235,"arg_perigee_deg":80.1975,"mean_anomaly_deg":279.9133,"bstar":5.0706e-5,"rev_number":28433,"period_min":94.013065204589,"perigee_km":470.08407547514,"apogee_km":471.38399119727,"semimajor_km":6848.8710333362,"source":"CELESTRAK","updated_at":"2026-05-25T13:38:16.649880Z"}}}